TimeEST,TemperatureF,Dew PointF,Humidity,Sea Level PressureIn,VisibilityMPH,Wind Direction,Wind SpeedMPH,Gust SpeedMPH,PrecipitationIn,Events,Conditions,WindDirDegrees,DateUTC
12:54 AM,32.0,27.0,82,30.39,8.0,ENE,4.6,-,N/A,,Clear,70,2012-11-15 05:54:00
1:54 AM,30.0,26.1,85,30.37,8.0,NNE,4.6,-,N/A,,Clear,30,2012-11-15 06:54:00
2:54 AM,28.9,25.0,85,30.37,7.0,North,4.6,-,N/A,,Clear,10,2012-11-15 07:54:00
3:54 AM,28.9,25.0,85,30.37,7.0,NNE,3.5,-,N/A,,Clear,30,2012-11-15 08:54:00
4:54 AM,28.9,26.1,89,30.36,6.0,NNE,3.5,-,N/A,,Clear,30,2012-11-15 09:54:00
5:54 AM,28.0,25.0,88,30.37,6.0,NNE,4.6,-,N/A,,Clear,30,2012-11-15 10:54:00
6:54 AM,28.0,26.1,92,30.38,6.0,Calm,Calm,-,N/A,,Scattered Clouds,0,2012-11-15 11:54:00
7:54 AM,28.9,26.1,89,30.39,4.0,NE,3.5,-,N/A,,Mostly Cloudy,40,2012-11-15 12:54:00
8:54 AM,32.0,28.0,85,30.41,4.0,NNE,3.5,-,N/A,,Mostly Cloudy,30,2012-11-15 13:54:00
9:54 AM,35.1,28.9,78,30.41,5.0,Calm,Calm,-,N/A,,Haze,0,2012-11-15 14:54:00
10:54 AM,39.0,30.0,70,30.42,6.0,Calm,Calm,-,N/A,,Haze,0,2012-11-15 15:54:00
11:54 AM,42.1,28.9,60,30.40,8.0,Calm,Calm,-,N/A,,Mostly Cloudy,0,2012-11-15 16:54:00
12:54 PM,43.0,28.9,58,30.38,7.0,NE,3.5,-,N/A,,Mostly Cloudy,50,2012-11-15 17:54:00
1:54 PM,45.0,28.9,53,30.35,9.0,Calm,Calm,-,N/A,,Mostly Cloudy,0,2012-11-15 18:54:00
2:54 PM,46.0,28.9,51,30.35,8.0,Calm,Calm,-,N/A,,Mostly Cloudy,0,2012-11-15 19:54:00
3:54 PM,46.0,28.0,50,30.34,10.0,Calm,Calm,-,N/A,,Mostly Cloudy,0,2012-11-15 20:54:00
4:54 PM,45.0,27.0,49,30.35,10.0,Calm,Calm,-,N/A,,Mostly Cloudy,0,2012-11-15 21:54:00
5:54 PM,41.0,28.0,60,30.35,10.0,NNW,3.5,-,N/A,,Mostly Cloudy,340,2012-11-15 22:54:00
6:54 PM,39.0,30.0,70,30.36,10.0,NNE,3.5,-,N/A,,Partly Cloudy,20,2012-11-15 23:54:00
7:54 PM,39.0,28.9,67,30.37,9.0,NE,3.5,-,N/A,,Partly Cloudy,40,2012-11-16 00:54:00
8:54 PM,37.0,28.9,73,30.38,8.0,NNE,3.5,-,N/A,,Partly Cloudy,20,2012-11-16 01:54:00
9:54 PM,34.0,28.9,82,30.39,7.0,Calm,Calm,-,N/A,,Partly Cloudy,0,2012-11-16 02:54:00
10:54 PM,32.0,28.0,85,30.39,7.0,NNE,4.6,-,N/A,,Partly Cloudy,20,2012-11-16 03:54:00
11:54 PM,33.1,28.0,82,30.39,6.0,North,3.5,-,N/A,,Haze,10,2012-11-16 04:54:00